Greenville Junction, ME

3:25 AM EDT on August 29, 2016 (GMT -0400)
Greenville

Weather History for KGNR - September, 2013

Change the Weather History Date:

Thursday, September 5, 2013

  Actual Average (KMLT) Record (KMLT)
Temperature  
Mean Temperature 51 °F 62 °F  
Max Temperature 59 °F 72 °F 87 °F (1996)
Min Temperature 45 °F 51 °F 32 °F (1963)
Degree Days  
Heating Degree Days 14 5  
Month to date heating degree days 22  
Since 1 July heating degree days 101  
Cooling Degree Days 0 1  
Month to date cooling degree days 7  
Year to date cooling degree days 258  
Growing Degree Days 1 (Base 50)    
Moisture  
Dew Point 38 °F    
Average Humidity 62    
Maximum Humidity 83    
Minimum Humidity 40    
Precipitation  
Precipitation 0.00 in 0.10 in 1.87 in (1903)
Month to date precipitation 0.53  
Year to date precipitation 27.46  
Sea Level Pressure  
Sea Level Pressure 29.97 in    
Wind  
Wind Speed 7 mph (NNW)    
Max Wind Speed 12 mph    
Max Gust Speed 25 mph    
T = Trace of Precipitation, MM = Missing Value Source: NWS Daily Summary

Daily Weather History Graph

Daily Weather History Graph

Search for Another Location

Airport or City:

Trip Planner

Search our weather history database for the weather conditions in past years. The results will help you decide how hot, cold, wet, or windy it might be!

Date:

Astronomy

Sep. 05, 2013 Rise Set
Actual Time 6:04 AM EDT 7:08 PM EDT
Civil Twilight 5:34 AM EDT 7:38 PM EDT
Nautical Twilight 4:58 AM EDT 8:14 PM EDT
Astronomical Twilight 4:20 AM EDT 8:52 PM EDT
Moon 6:16 AM EDT (9/5) 6:53 PM EDT (9/5)
Length of Visible Light 14h 03m
Length of Day
13h 03m
New Moon, 0% of the Moon is Illuminated
Sep 5
New Moon
Sep 12
First Quarter
Sep 19
Full
Sep 26
Last Quarter
Oct 4
New

Hourly Weather History & Observations

Time (EDT) Temp. Windchill Dew Point Humidity Pressure Visibility Wind Dir Wind Speed Gust Speed Precip Events Conditions
12:56 AM 51.1 °F - 45.0 °F 80% 29.88 in - NNW 8.1 mph - N/A   Unknown
1:56 AM 50.0 °F - 44.1 °F 80% 29.88 in - Variable 4.6 mph - N/A   Unknown
2:56 AM 50.0 °F - 45.0 °F 83% 29.86 in - NW 4.6 mph - N/A   Unknown
3:56 AM 50.0 °F - 45.0 °F 83% 29.88 in - NNW 8.1 mph - N/A   Unknown
4:56 AM 50.0 °F - 39.9 °F 68% 29.89 in - NNW 8.1 mph - N/A   Unknown
5:56 AM 48.9 °F - 42.1 °F 77% 29.91 in - NNW 5.8 mph - N/A   Unknown
6:56 AM 48.9 °F - 39.9 °F 71% 29.93 in - NNW 8.1 mph - N/A   Unknown
7:56 AM 50.0 °F - 39.0 °F 66% 29.96 in - NNW 6.9 mph - N/A   Unknown
8:56 AM 50.0 °F - 41.0 °F 71% 29.96 in - Variable 6.9 mph - N/A   Unknown
9:56 AM 52.0 °F - 37.9 °F 59% 29.97 in - NNW 10.4 mph - N/A   Unknown
10:56 AM 54.0 °F - 34.0 °F 47% 29.96 in - NW 11.5 mph 21.9 mph N/A   Unknown
11:56 AM 55.9 °F - 34.0 °F 44% 29.95 in - NW 10.4 mph 25.3 mph N/A   Unknown
12:56 PM 57.0 °F - 34.0 °F 42% 29.96 in - NW 8.1 mph 20.7 mph N/A   Unknown
1:56 PM 57.0 °F - 33.1 °F 40% 29.95 in - Variable 6.9 mph 19.6 mph N/A   Unknown
2:56 PM 55.0 °F - 34.0 °F 45% 29.97 in - NW 9.2 mph 19.6 mph N/A   Unknown
3:56 PM 57.0 °F - 34.0 °F 42% 29.97 in - NW 8.1 mph 20.7 mph N/A   Unknown
4:56 PM 54.0 °F - 32.0 °F 43% 30.00 in - Variable 6.9 mph - N/A   Unknown
5:56 PM 53.1 °F - 34.0 °F 48% 30.01 in - Variable 5.8 mph - N/A   Unknown
6:56 PM 51.1 °F - 33.1 °F 50% 30.03 in - NW 6.9 mph - N/A   Unknown
7:56 PM 48.0 °F - 36.0 °F 63% 30.06 in - Variable 3.5 mph - N/A   Unknown
8:56 PM 46.9 °F - 37.0 °F 68% 30.07 in - Variable 3.5 mph - N/A   Unknown
9:56 PM 46.0 °F 43.1 °F 36.0 °F 68% 30.09 in - Variable 5.8 mph - N/A   Unknown
10:56 PM 45.0 °F - 37.9 °F 76% 30.10 in - Calm Calm - N/A   Unknown
11:56 PM 45.0 °F - 36.0 °F 71% 30.10 in - Calm Calm - N/A   Unknown